Temperature
7 7 7 7 7 8 8 8 8 8 8 9 9 9 9 10 10 10 9 9 9 9 8 8 8 8 8 8 7 7 6 5 4 4 4 3 3 3 3 3 2 3 3
6 6 6 6 6 7 7 7 7 7 8 8 8 8 8 9 9 9 9 8 8 8 8 8 7 7 7 7 6 6 5 4 3 3 3 3 2 2 2 2 1 1 1
5 5 5 5 6 6 6 6 6 6 7 7 7 7 7 8 7 7 7 7 7 7 7 7 7 6 6 5 5 4 3 2 2 2 3 2 2 1 1 1 0 0 -0
4 4 4 4 4 5 5 5 5 6 6 6 6 6 6 6 6 6 6 6 6 6 6 5 5 4 4 3 2 2 2 2 2 2 2 1 1 0 -0 -0 -1 -1 -1
3 3 3 3 3 4 4 4 4 4 5 5 5 5 5 5 5 5 5 5 5 4 4 3 3 2 2 1 1 1 1 1 1 1 1 0 -0 -1 -1 -2 -2 -3 -3
2 2 2 2 3 3 3 3 3 3 3 4 4 4 4 4 3 3 3 3 3 2 2 1 1 0 0 0 0 0 0 0 -0 -1 -1 -1 -2 -3 -3 -4 -5 -5 -4
1 1 2 2 2 2 2 2 2 2 2 2 2 2 1 1 1 1 1 1 1 1 0 0 -0 -0 -0 -0 -1 -1 -1 -1 -2 -2 -3 -3 -4 -5 -5 -6 -6 -6 -5
1 1 1 1 1 1 1 1 1 1 1 1 0 0 0 0 0 0 0 -0 -0 -0 -0 -0 -1 -1 -1 -1 -1 -2 -2 -3 -3 -4 -4 -4 -5 -6 -6 -6 -6 -6 -6
1 1 1 1 1 0 0 0 0 0 0 -0 -0 -0 -0 -0 -0 -1 -1 -1 -1 -1 -1 -2 -2 -2 -2 -3 -3 -3 -4 -4 -5 -5 -6 -6 -6 -6 -7 -7 -7 -7 -6
1 0 0 0 0 0 0 0 -0 -0 -0 -0 -0 -0 -1 -1 -1 -1 -1 -2 -2 -2 -2 -3 -3 -3 -4 -4 -4 -5 -5 -6 -6 -7 -7 -7 -7 -7 -7 -7 -7 -7 -7
1 1 0 0 0 0 0 -0 -0 -0 -1 -1 -1 -1 -1 -1 -2 -2 -2 -2 -3 -3 -4 -4 -4 -5 -5 -5 -6 -6 -7 -7 -7 -7 -7 -7 -7 -7 -7 -7 -7 -7 -8
1 1 1 0 0 -0 -0 -0 -0 -1 -1 -1 -1 -1 -2 -2 -2 -3 -3 -4 -4 -4 -5 -5 -6 -6 -6 -6 -6 -7 -7 -7 -7 -7 -7 -7 -7 -7 -7 -7 -7 -7 -7
1 1 1 0 0 -0 -0 -0 -1 -1 -1 -1 -2 -2 -3 -3 -3 -4 -4 -5 -5 -6 -6 -6 -7 -7 -7 -7 -7 -7 -7 -7 -7 -7 -7 -7 -7 -7 -7 -7 -7 -7 -7
1 1 1 0 0 -0 -0 -0 -1 -1 -1 -2 -2 -3 -3 -4 -4 -5 -5 -6 -6 -6 -6 -7 -7 -7 -7 -7 -7 -7 -7 -7 -7 -7 -7 -7 -7 -7 -7 -7 -7 -7 -7
1 1 1 0 0 0 -0 -0 -1 -1 -2 -2 -3 -3 -4 -4 -5 -5 -6 -6 -6 -7 -7 -7 -7 -8 -8 -8 -8 -8 -8 -8 -8 -8 -8 -8 -7 -7 -7 -7 -8 -8 -8
1 1 1 0 0 0 -0 -1 -1 -2 -2 -3 -3 -4 -4 -5 -5 -6 -6 -7 -7 -7 -8 -7 -8 -8 -8 -8 -8 -8 -8 -8 -8 -8 -8 -8 -8 -8 -8 -7 -8 -8 -8
1 1 1 0 0 -0 -1 -1 -1 -2 -2 -3 -3 -4 -5 -5 -6 -6 -7 -7 -7 -8 -8 -8 -8 -8 -8 -8 -8 -8 -8 -8 -8 -8 -8 -8 -8 -8 -8 -8 -8 -8 -8
1 1 0 0 -0 -1 -1 -1 -2 -2 -3 -3 -4 -5 -5 -6 -6 -7 -7 -7 -8 -8 -8 -9 -9 -9 -9 -9 -9 -8 -8 -8 -8 -8 -8 -8 -8 -9 -9 -8 -8 -9 -9
1 1 0 -0 -0 -1 -1 -2 -2 -3 -3 -4 -4 -5 -6 -6 -7 -7 -8 -8 -8 -8 -9 -9 -9 -9 -9 -9 -9 -9 -8 -8 -8 -8 -8 -8 -9 -9 -9 -9 -9 -9 -9
1 0 0 -0 -1 -1 -1 -2 -2 -3 -3 -4 -5 -5 -6 -6 -7 -7 -8 -8 -8 -9 -9 -9 -9 -9 -9 -9 -9 -8 -8 -8 -8 -8 -8 -8 -9 -9 -9 -9 -9 -9 -9
0 0 -0 -1 -1 -1 -2 -2 -3 -3 -4 -4 -5 -6 -6 -7 -7 -7 -8 -8 -8 -8 -9 -9 -9 -8 -9 -9 -9 -8 -8 -8 -8 -8 -8 -8 -9 -9 -9 -9 -9 -9 -9
-0 -0 -1 -1 -1 -2 -2 -2 -3 -3 -4 -5 -5 -6 -6 -7 -7 -7 -7 -8 -8 -8 -8 -8 -8 -8 -8 -8 -8 -8 -8 -8 -8 -8 -9 -9 -9 -9 -9 -9 -9 -9 -9
-1 -1 -1 -1 -1 -2 -2 -3 -3 -4 -4 -5 -5 -6 -6 -7 -7 -7 -7 -8 -8 -8 -8 -8 -8 -8 -8 -8 -8 -8 -8 -8 -8 -9 -9 -9 -9 -9 -9 -9 -9 -9 -9
-1 -1 -2 -2 -2 -2 -2 -3 -3 -4 -4 -5 -5 -6 -6 -6 -7 -7 -7 -7 -7 -7 -8 -8 -8 -8 -8 -8 -8 -8 -8 -8 -9 -9 -9 -9 -9 -9 -9 -9 -9 -9 -9
-2 -2 -2 -2 -2 -2 -3 -3 -3 -4 -4 -5 -5 -6 -6 -6 -7 -7 -7 -7 -7 -7 -7 -7 -8 -8 -8 -8 -8 -8 -8 -8 -9 -9 -9 -9 -9 -9 -9 -9 -9 -9 -9
-2 -2 -2 -2 -2 -3 -3 -3 -4 -4 -5 -5 -5 -6 -6 -6 -6 -7 -7 -7 -7 -7 -7 -7 -8 -8 -8 -8 -8 -8 -8 -8 -9 -9 -9 -9 -9 -9 -9 -9 -9 -9 -9
Wind_Speed
8 8 8 8 9 9 8 8 8 7 7 7 6 4 4 2 1 1 1 2 3 2 2 3 3 3 4 3 3 3 3 4 5 3 2 2 4 5 5 5 6 8 10
8 8 8 8 9 9 9 9 8 8 8 8 8 7 7 6 4 3 3 3 3 3 3 4 4 5 6 5 4 4 4 3 4 5 3 3 4 4 4 4 6 8 9
7 8 8 9 9 9 9 10 10 9 9 10 10 10 9 9 8 7 6 6 6 5 5 5 6 7 6 6 6 5 4 4 3 5 4 2 2 3 4 4 6 7 10
7 8 8 8 9 9 9 9 10 10 10 10 10 10 10 9 9 9 9 9 9 9 8 7 6 6 7 7 6 6 5 5 5 5 3 2 2 3 3 4 4 4 5
7 7 7 7 8 8 9 9 10 10 11 10 10 10 10 9 9 9 9 9 10 10 9 8 7 8 9 6 5 5 5 4 4 3 2 2 3 3 4 3 4 3 4
7 7 7 7 8 8 9 9 10 10 10 10 11 10 10 9 14 14 11 9 9 10 9 9 8 8 8 9 8 7 5 4 3 2 2 3 3 3 2 2 1 1 3
6 7 7 8 8 9 9 9 10 10 10 10 10 10 11 13 17 17 17 11 10 9 8 7 7 8 9 6 6 5 3 1 2 2 2 2 1 1 1 0 2 3 5
7 7 7 7 8 8 9 9 9 9 9 9 10 11 11 13 17 17 17 11 10 9 8 7 6 5 4 4 2 2 1 1 1 1 1 1 1 1 2 3 4 4 5
6 7 7 7 7 8 8 8 7 8 9 8 8 9 9 10 14 14 12 6 7 6 5 5 4 2 3 3 2 1 2 3 4 3 5 6 9 10 8 3 3 4 5
5 5 6 6 6 7 7 6 6 6 7 7 7 6 6 6 11 11 9 4 4 3 2 1 3 3 4 4 3 2 2 2 4 5 5 7 7 8 10 5 5 4 4
4 5 5 5 5 5 5 5 5 5 5 5 4 3 4 5 8 10 10 5 4 3 2 2 1 4 5 6 5 3 4 4 3 4 5 5 4 4 4 4 4 5 5
4 4 4 4 3 4 4 3 3 3 3 3 3 3 3 3 4 6 8 7 6 4 3 2 3 5 6 7 5 6 8 7 3 3 3 4 3 3 2 2 4 6 8
5 4 4 3 2 2 3 2 2 2 2 2 2 2 2 2 3 5 6 6 6 3 2 5 6 7 7 6 7 8 6 3 3 3 3 3 3 3 3 4 5 8 11
5 5 4 4 3 4 4 3 3 3 3 3 3 2 1 2 3 3 4 4 6 5 4 6 8 8 6 6 6 4 3 3 3 3 4 4 4 4 4 4 5 5 7
6 5 4 3 4 4 4 4 4 3 4 3 2 2 3 2 3 5 4 3 3 4 5 4 4 3 3 3 3 3 3 3 3 3 3 4 5 5 5 4 4 5 7
6 5 4 3 3 4 4 3 4 3 4 4 3 2 2 3 5 6 7 8 9 10 6 4 4 4 3 3 4 4 4 4 4 3 4 5 6 7 8 7 7 8 9
6 6 4 4 3 3 3 3 1 1 2 1 1 1 3 5 6 7 8 9 10 9 4 4 4 4 4 4 4 4 4 5 4 4 5 6 7 8 8 9 8 9 10
7 6 5 4 3 3 2 2 1 0 1 2 3 3 3 6 7 8 8 7 6 5 3 4 4 5 5 5 5 5 5 5 5 6 6 7 7 8 9 9 9 10 11
6 5 4 4 4 3 3 2 1 0 1 2 2 3 3 6 8 9 7 3 4 5 4 5 5 5 5 5 5 6 6 6 7 7 7 8 8 8 10 10 10 15 14
6 8 7 5 4 3 3 2 2 2 2 3 3 2 1 3 4 5 3 3 4 5 5 5 5 6 6 6 6 6 7 7 8 8 8 8 8 9 11 12 11 12 11
6 7 8 5 4 4 3 3 2 2 2 3 3 4 5 3 4 5 4 4 5 5 5 6 6 6 6 6 6 7 9 8 8 8 9 9 9 10 10 11 12 12 12
6 6 5 5 4 4 4 3 3 3 3 4 3 4 7 4 4 5 5 5 5 5 5 6 6 6 6 7 7 8 9 10 10 9 10 10 10 11 11 12 12 12 13
7 7 6 5 4 6 5 4 3 3 4 4 4 4 4 4 5 5 6 6 6 6 6 6 7 7 8 11 11 8 10 11 11 10 11 11 11 11 11 13 14 15 15
7 7 7 6 5 5 5 4 4 4 4 4 4 4 5 5 5 6 6 6 6 6 8 8 8 10 12 14 15 15 16 18 17 14 14 14 14 13 13 14 16 17 17
7 7 7 6 6 5 5 5 5 5 4 4 4 5 5 5 6 6 6 6 7 7 8 10 11 12 14 16 18 19 22 25 24 21 17 13 16 16 17 17 17 18 19
7 7 6 6 6 5 5 5 5 5 5 5 5 5 5 6 6 6 6 7 7 7 8 10 13 16 18 19 20 23 24 25 26 27 21 14 16 16 17 17 20 19 20
Wind_Direction
348 344 351 353 350 348 349 348 347 345 346 346 341 343 341 336 340 187 210 190 197 199 170 181 171 140 138 131 134 145 150 151 159 142 125 140 162 170 183 209 235 246 256
350 353 1 1 359 1 359 358 1 4 8 9 13 21 25 28 35 59 77 89 112 125 116 117 120 117 115 115 119 121 128 125 142 149 150 162 182 187 192 221 243 251 256
357 6 10 9 8 7 5 9 14 18 22 25 30 34 35 37 39 42 58 70 76 86 99 116 123 125 121 118 117 118 116 104 100 136 143 149 171 188 197 225 240 251 258
11 20 17 15 14 13 15 21 25 28 32 34 37 40 42 45 49 53 61 68 71 70 75 87 101 119 125 122 119 121 117 105 103 116 121 149 175 177 189 219 241 237 252
22 27 21 22 24 26 29 31 34 36 40 41 44 44 44 49 55 63 67 74 78 77 72 75 85 102 116 114 121 119 115 113 120 122 145 167 183 188 203 207 228 247 266
33 33 28 31 33 34 37 41 44 44 43 47 50 50 52 59 68 74 77 73 76 78 76 69 71 72 87 94 109 117 124 132 140 152 175 190 200 206 196 190 198 291 292
43 42 40 42 44 42 47 50 51 50 50 53 54 57 61 65 71 75 77 73 70 68 69 67 64 59 59 55 69 74 68 94 176 175 190 214 228 185 141 194 248 248 252
51 48 48 51 53 51 53 54 55 55 56 56 56 58 62 65 70 74 77 72 70 66 63 62 64 56 55 52 50 53 0 298 258 224 198 252 270 229 198 215 235 260 265
57 52 52 58 63 61 60 59 60 66 65 61 60 59 61 61 67 71 74 72 73 69 66 62 59 51 43 30 23 333 297 290 274 260 265 275 279 279 270 253 259 278 288
65 63 63 65 70 70 68 68 68 73 76 74 70 64 62 58 61 62 64 67 72 72 71 71 58 36 11 5 7 350 334 351 8 351 320 301 288 280 277 245 207 223 255
89 82 78 80 84 86 83 81 86 87 87 85 84 76 71 66 56 51 49 47 37 36 33 41 53 15 355 347 348 347 318 327 327 304 293 288 285 274 268 254 213 200 219
115 106 99 99 103 111 111 109 111 110 99 94 87 71 57 63 62 49 41 36 26 23 21 32 7 346 335 328 324 313 316 321 312 296 294 295 297 295 289 287 281 268 251
144 137 134 128 115 112 112 106 91 80 83 76 78 74 47 43 42 36 23 17 10 12 355 342 332 327 325 324 318 318 325 322 305 301 300 292 281 272 273 277 275 269 263
149 144 141 131 115 84 59 53 58 41 48 54 57 48 10 25 40 26 6 2 4 2 356 333 322 310 305 298 303 310 294 262 276 270 283 286 290 289 282 272 272 276 278
148 144 136 129 122 102 80 65 80 66 68 73 60 43 37 22 4 357 352 349 346 322 331 325 314 310 316 318 314 307 305 305 306 285 286 297 301 298 293 294 283 282 277
155 159 158 155 141 137 134 106 83 110 83 72 64 39 1 341 335 337 334 332 329 324 331 321 314 321 326 326 323 318 315 313 304 296 295 293 295 295 295 293 286 282 280
163 165 163 165 163 159 151 154 177 196 188 178 142 1 338 328 327 325 325 325 322 317 313 302 304 306 300 296 293 290 289 287 285 281 277 278 282 285 287 287 285 282 279
159 161 161 167 162 160 159 148 135 149 283 270 230 250 300 318 317 314 314 323 321 320 289 283 283 285 285 284 282 282 282 284 281 278 276 276 278 280 280 279 278 277 279
156 159 164 158 151 148 143 138 143 227 279 290 296 285 288 313 315 308 303 281 283 291 290 285 278 277 276 274 274 274 275 276 275 273 272 271 272 272 274 273 274 277 279
164 167 160 155 156 156 156 169 201 239 266 280 286 284 319 324 307 303 296 275 272 276 278 277 275 274 272 270 271 272 274 274 274 271 271 271 270 270 272 274 274 276 276
160 167 168 158 166 170 174 189 205 225 253 267 271 280 292 282 286 288 285 279 272 273 272 272 271 272 270 269 268 269 271 274 272 271 272 273 272 273 272 272 272 273 275
160 164 169 172 169 173 182 190 201 225 250 263 268 283 295 282 272 274 275 275 270 267 264 265 268 266 264 265 268 271 273 275 274 272 273 273 273 274 275 275 275 276 276
159 163 170 171 170 189 194 195 209 226 243 253 261 265 271 267 267 271 272 272 272 271 271 267 270 274 272 270 265 261 268 273 272 272 274 278 277 276 276 276 275 276 275
167 169 173 175 176 183 194 205 214 226 236 246 254 260 263 265 271 277 276 276 276 273 275 274 272 273 275 279 278 272 269 270 271 270 266 268 271 273 273 272 273 272 273
174 176 178 180 184 191 200 209 216 226 237 246 252 260 266 271 274 276 277 277 279 279 280 281 280 279 278 278 279 280 280 281 281 278 272 268 268 267 269 270 272 274 274
179 180 181 181 186 192 200 211 220 225 233 243 251 258 264 269 273 276 279 280 282 283 284 286 283 282 284 286 286 286 288 290 290 289 286 280 276 275 274 276 277 276 279
Height
1476 1474 1472 1471 1470 1468 1467 1466 1464 1463 1462 1461 1460 1460 1460 1460 1460 1460 1461 1461 1462 1462 1463 1464 1465 1466 1466 1467 1468 1469 1470 1472 1473 1474 1477 1479 1481 1483 1485 1487 1488 1489 1489
1472 1471 1469 1468 1466 1465 1463 1462 1461 1459 1458 1457 1456 1455 1455 1455 1455 1455 1455 1455 1456 1457 1457 1458 1459 1459 1459 1460 1461 1462 1463 1465 1468 1469 1471 1474 1476 1478 1479 1480 1481 1481 1482
1470 1468 1467 1465 1464 1462 1461 1459 1458 1457 1455 1454 1453 1452 1452 1451 1451 1451 1451 1451 1451 1452 1452 1453 1453 1454 1454 1454 1455 1457 1458 1460 1463 1465 1467 1469 1471 1473 1473 1474 1474 1474 1474
1467 1466 1464 1463 1462 1460 1459 1457 1456 1455 1454 1452 1451 1450 1450 1449 1449 1448 1448 1447 1447 1447 1448 1448 1449 1449 1450 1451 1452 1455 1456 1458 1460 1462 1463 1464 1466 1466 1467 1468 1467 1468 1468
1465 1464 1463 1462 1460 1459 1458 1456 1455 1454 1452 1451 1450 1449 1449 1448 1447 1446 1445 1445 1444 1444 1445 1445 1446 1447 1448 1450 1452 1454 1455 1456 1457 1458 1459 1460 1461 1461 1461 1461 1461 1461 1461
1464 1463 1462 1460 1459 1458 1457 1456 1455 1453 1452 1451 1450 1449 1448 1446 1446 1445 1444 1444 1444 1444 1445 1446 1447 1448 1449 1450 1452 1452 1453 1454 1454 1455 1455 1456 1456 1456 1456 1456 1456 1456 1455
1464 1463 1461 1460 1459 1458 1457 1456 1455 1454 1453 1452 1450 1449 1448 1447 1447 1446 1445 1445 1445 1446 1446 1448 1449 1449 1450 1450 1450 1451 1451 1451 1451 1452 1452 1452 1452 1452 1452 1452 1452 1451 1450
1464 1463 1462 1461 1460 1459 1458 1457 1456 1455 1455 1454 1453 1452 1451 1450 1449 1449 1448 1448 1448 1448 1448 1449 1449 1449 1449 1449 1449 1448 1448 1448 1448 1448 1448 1448 1448 1448 1447 1447 1447 1446 1445
1465 1464 1463 1462 1461 1461 1460 1459 1458 1458 1457 1456 1455 1455 1453 1452 1452 1451 1450 1450 1449 1449 1449 1449 1449 1448 1448 1447 1447 1446 1446 1445 1445 1444 1444 1444 1444 1443 1443 1443 1442 1442 1440
1467 1466 1465 1464 1464 1463 1462 1461 1461 1460 1459 1459 1458 1457 1456 1455 1454 1453 1452 1451 1450 1449 1449 1448 1448 1447 1446 1445 1444 1444 1443 1442 1442 1441 1441 1440 1440 1440 1440 1440 1439 1438 1437
1468 1468 1467 1466 1466 1465 1464 1464 1463 1462 1461 1461 1460 1458 1457 1456 1455 1454 1452 1451 1450 1449 1448 1447 1446 1445 1444 1443 1442 1441 1440 1440 1438 1438 1437 1437 1437 1436 1436 1436 1436 1435 1433
1469 1469 1468 1468 1467 1467 1466 1465 1465 1464 1463 1462 1461 1459 1458 1457 1455 1454 1452 1451 1450 1448 1447 1446 1445 1444 1442 1441 1440 1439 1438 1437 1436 1435 1435 1434 1434 1434 1433 1433 1432 1430 1429
1470 1469 1469 1469 1468 1468 1467 1466 1466 1465 1464 1463 1461 1460 1458 1457 1455 1453 1452 1450 1448 1447 1446 1444 1443 1441 1440 1439 1438 1436 1435 1434 1433 1433 1432 1432 1431 1430 1429 1428 1427 1425 1423
1469 1469 1469 1469 1469 1468 1468 1467 1466 1465 1464 1462 1461 1459 1458 1456 1454 1452 1450 1449 1447 1445 1444 1442 1441 1439 1438 1436 1435 1434 1433 1432 1431 1430 1429 1429 1428 1426 1425 1423 1421 1419 1416
1468 1468 1469 1469 1468 1468 1468 1467 1466 1465 1464 1462 1460 1459 1457 1455 1453 1451 1449 1447 1445 1443 1441 1440 1438 1437 1436 1434 1433 1432 1431 1430 1428 1427 1426 1425 1423 1422 1420 1418 1416 1413 1410
1466 1467 1467 1468 1467 1467 1467 1466 1465 1464 1463 1461 1459 1457 1455 1453 1451 1449 1447 1445 1443 1441 1439 1438 1436 1435 1433 1432 1430 1429 1428 1427 1425 1424 1422 1421 1419 1416 1414 1412 1410 1407 1404
1464 1465 1465 1466 1466 1465 1465 1464 1463 1462 1461 1459 1457 1455 1453 1450 1448 1446 1444 1442 1440 1439 1437 1435 1434 1432 1431 1429 1428 1426 1425 1423 1422 1420 1418 1416 1414 1412 1409 1406 1404 1401 1397
1461 1462 1463 1464 1464 1463 1463 1462 1461 1459 1458 1456 1454 1452 1450 1448 1445 1443 1441 1439 1438 1436 1434 1433 1431 1429 1428 1426 1424 1423 1421 1419 1418 1416 1414 1412 1409 1406 1403 1401 1398 1395 1391
1458 1460 1460 1461 1461 1461 1460 1460 1458 1457 1455 1453 1451 1449 1447 1445 1443 1440 1438 1437 1435 1433 1431 1430 1428 1426 1424 1422 1420 1419 1417 1415 1413 1411 1408 1406 1404 1401 1397 1394 1391 1388 1384
1455 1456 1457 1458 1458 1458 1457 1457 1455 1454 1452 1450 1448 1446 1444 1442 1439 1437 1436 1434 1432 1430 1428 1426 1424 1422 1420 1418 1416 1414 1412 1410 1407 1405 1402 1400 1397 1394 1391 1387 1384 1380 1376
1451 1453 1454 1454 1455 1455 1454 1453 1452 1451 1449 1447 1445 1443 1441 1439 1437 1434 1432 1431 1429 1426 1424 1422 1420 1418 1416 1414 1411 1409 1406 1404 1402 1399 1396 1393 1390 1387 1383 1380 1376 1373 1368
1447 1448 1450 1450 1451 1451 1450 1450 1449 1447 1446 1444 1442 1440 1438 1436 1434 1432 1429 1427 1425 1423 1421 1418 1416 1414 1411 1409 1406 1403 1400 1398 1395 1392 1389 1386 1383 1379 1376 1372 1368 1364 1360
1441 1444 1445 1446 1447 1447 1447 1446 1445 1444 1442 1440 1439 1437 1435 1433 1431 1428 1426 1424 1422 1419 1417 1414 1411 1409 1406 1404 1401 1398 1394 1391 1389 1386 1382 1378 1375 1371 1368 1364 1360 1356 1351
1436 1439 1441 1442 1443 1443 1443 1442 1441 1440 1439 1437 1435 1434 1432 1430 1427 1425 1423 1420 1418 1415 1413 1410 1407 1404 1401 1398 1395 1392 1389 1386 1382 1379 1375 1371 1367 1363 1359 1355 1350 1346 1341
1432 1434 1436 1437 1438 1439 1439 1438 1437 1436 1435 1434 1432 1430 1428 1426 1424 1422 1419 1416 1414 1411 1408 1405 1402 1399 1395 1392 1389 1386 1383 1380 1376 1373 1368 1364 1359 1354 1350 1345 1341 1336 1332
1427 1430 1432 1433 1434 1435 1435 1434 1433 1432 1431 1430 1428 1427 1425 1422 1420 1418 1415 1412 1409 1406 1403 1400 1397 1394 1390 1386 1383 1380 1376 1373 1369 1366 1362 1357 1352 1347 1343 1337 1332 1327 1322